Regional Weather Roundup
Issued by NWS

Home | Current Version | Previous Version | Graphics & Text | Print | Product List | Glossary On
Versions: 1 2 3 4 5 6 7 8 9 10 11 12 13 14 15 16 17 18 19 20 21 22 23 24 25 26 27 28 29 30 31 32 33 34 35 36 37 38 39 40 41 42 43 44 45 46 47 48 49 50
000
ASUS43 KOAX 241902
RWRNE

WEATHER ROUNDUP FOR NEBRASKA
NATIONAL WEATHER SERVICE OMAHA NE
200 PM CDT FRI OCT 24 2014

NOTES: SATELLITE DATA IS BEING USED TO AUGMENT CLOUD COVER ABOVE
       12000 FEET.
       "FAIR" INDICATES FEW OR NO CLOUDS BELOW 12,000 FEET WITH NO
       SIGNIFICANT WEATHER AND/OR OBSTRUCTIONS TO VISIBILITY.

  * THESE STATIONS DO NOT REPORT WEATHER SUCH AS RAIN...SNOW OR FOG.

NEZ001>004-019>022-054>056-242000-
NEBRASKA PANHANDLE

CITY           SKY/WX    TMP DP  RH WIND       PRES   REMARKS
SCOTTSBLUFF    MOSUNNY   79  32  18 W23       30.05F
ALLIANCE       SUNNY     78  36  21 W15G22    30.04F
CHADRON        SUNNY     76  35  22 W12       30.01F
KIMBALL        SUNNY     79  28  15 W16       30.10F
SIDNEY         MOSUNNY   80  33  18 NW14      30.09F
$$

NEZ057>060-069>072-079>082-242000-
SOUTHWEST NEBRASKA

CITY           SKY/WX    TMP DP  RH WIND       PRES   REMARKS
NORTH PLATTE   SUNNY     81  37  20 W12       29.99F
IMPERIAL       PTSUNNY   82  33  17 NW10      30.05F
LEXINGTON      MOSUNNY   79  43  27 W8        29.97F
MCCOOK         MOSUNNY   82  40  22 SW9       30.01F
OGALLALA       MOSUNNY   82  34  17 NW18      30.03F
$$

NEZ005>010-023>029-035>040-094-242000-
NORTH CENTRAL NEBRASKA

CITY           SKY/WX    TMP DP  RH WIND       PRES   REMARKS
VALENTINE      MOSUNNY   76  36  23 W7        29.96F
AINSWORTH      MOSUNNY   74  35  24 CALM      29.96F
BROKEN BOW     MOSUNNY   81  40  23 N10       29.95F
O`NEILL        PTSUNNY   71  40  32 N3        29.95F
ORD            PTSUNNY   72  42  34 N5        29.94F
THEDFORD       SUNNY     80  37  21 NW8       29.98F
$$

NEZ041-046>049-061>064-073>077-083>087-242000-
SOUTH CENTRAL NEBRASKA

CITY           SKY/WX    TMP DP  RH WIND       PRES   REMARKS
GRAND ISLAND   PTSUNNY   72  52  49 W7        29.95F
AURORA         CLOUDY    71  47  42 W7        29.94F
HASTINGS       CLOUDY    72  48  42 W8        29.95F
HEBRON         CLOUDY    73  57  58 SW12      29.94F
HOLDREGE       PTSUNNY   81  37  20 NW7       29.97F
KEARNEY *      PTSUNNY   77  43  29 NW12      29.97F
YORK           CLOUDY    72  55  56 W3        29.93F
$$

NEZ011>018-030>034-042>045-242000-
NORTHEAST NEBRASKA

CITY           SKY/WX    TMP DP  RH WIND       PRES   REMARKS
NORFOLK        CLOUDY    69  51  52 CALM      29.92F
ALBION         PTSUNNY   71  42  34 N3        29.94F
BLAIR          CLOUDY    73  59  62 SW7       29.91F
COLUMBUS *     CLOUDY    70  54  56 NW5       29.94F
FREMONT        CLOUDY    73  55  53 W3        29.92F
TEKAMAH        CLOUDY    72  56  57 W6        29.90F
WAYNE          CLOUDY    72  44  36 NW6       29.92F
$$

NEZ050>053-065>068-078-088>093-242000-
SOUTHEAST NEBRASKA

CITY           SKY/WX    TMP DP  RH WIND       PRES   REMARKS
LINCOLN        CLOUDY    72  57  59 SW8       29.93F
OMAHA EPPLEY   CLOUDY    72  59  63 SW6       29.91F
BEATRICE       CLOUDY    72  62  69 SW9       29.93F
FALLS CITY     CLOUDY    75  63  66 SW15      29.92F
NEBRASKA CITY  CLOUDY    71  60  68 SW10      29.93F
PLATTSMOUTH    CLOUDY    72  59  64 SW10      29.91F
$$

NEZ044-045-051>053-067-242000-
OMAHA AREA

CITY           SKY/WX    TMP DP  RH WIND       PRES   REMARKS
OMAHA EPPLEY   CLOUDY    72  59  63 SW6       29.91F
BLAIR          CLOUDY    73  59  62 SW7       29.91F
FREMONT        CLOUDY    73  55  53 W3        29.92F
MILLARD        CLOUDY    72  60  66 W8        29.91F
OFFUTT AFB     CLOUDY    74  65  73 SW8       29.90F
PLATTSMOUTH    CLOUDY    72  59  64 SW10      29.91F
WAHOO          FAIR      73  54  51 W5        29.91F
$$



USA.gov is the U.S. government's official web portal to all federal, state and local government web resources and services.